Location: Berlin
(52.5170°N, 13.4000°E)
Time: 15:32:39
(UTC+01:00)

ISS - Visible Passes

Search period start: 25 March 2019 00:00
Search period end: 04 April 2019 01:00
Orbit: 408 x 411 km, 51.6° (Epoch: 25 March)

Date Brightness Start Highest point End Pass type
(mag) Time Alt. Az. Time Alt. Az. Time Alt. Az.
25 Mar -3.8 20:18:03 10° WSW 20:21:19 57° SSE 20:21:38 54° SE visible
26 Mar -3.3 19:27:36 10° SW 19:30:46 44° SSE 19:33:15 15° E visible
26 Mar -2.5 21:03:54 10° W 21:06:02 37° W 21:06:02 37° W visible
27 Mar -3.9 20:13:17 10° WSW 20:16:36 74° S 20:17:33 42° E visible
27 Mar -0.8 21:49:50 10° W 21:50:19 13° W 21:50:19 13° W visible
28 Mar -3.7 19:22:42 10° WSW 19:25:59 64° SSE 19:29:00 12° E visible
28 Mar -3.1 20:59:12 10° W 21:01:45 49° WSW 21:01:45 49° WSW visible
29 Mar -3.9 20:08:33 10° W 20:11:51 78° S 20:13:09 34° E visible
29 Mar -1.1 21:45:08 10° W 21:45:54 16° W 21:45:54 16° W visible
30 Mar -3.8 19:17:54 10° W 19:21:13 77° S 19:24:30 10° E visible
30 Mar -3.3 20:54:27 10° W 20:57:16 50° SW 20:57:16 50° SW visible
31 Mar -3.8 21:03:46 10° W 21:07:04 68° S 21:08:35 29° ESE visible
31 Mar -1.1 22:40:31 10° W 22:41:21 15° W 22:41:21 15° W visible
01 Apr -3.7 20:13:04 10° W 20:16:24 76° S 20:19:42 10° E visible
01 Apr -2.8 21:49:42 10° W 21:52:40 36° SSW 21:52:40 36° SSW visible
02 Apr -3.3 20:58:57 10° W 21:02:10 48° SSW 21:03:59 22° SE visible
02 Apr -1.0 22:36:14 10° WSW 22:36:44 12° WSW 22:36:44 12° WSW visible
03 Apr -2.1 21:45:06 10° W 21:47:42 22° SSW 21:48:04 21° SSW visible
